Location: Rounton
(54.4000°N, 1.3500°W)
Time: 23:21:18
(UTC+00:00)

Vanguard 3 - Pass Details

Date: 04 December 2021
Orbit: 508 x 3260 km, 33.3° (Epoch: 17 January)

Event Time Altitude Azimuth Distance (km) Brightness Sun altitude
Rises 08:43:30 0° 266° (W) 6,972 11.5 3.0°
Reaches altitude 10° 08:50:18 10° 253° (WSW) 5,588 11.2 3.6°
Maximum altitude 09:00:02 20° 216° (SW) 4,065 10.9 4.6°
Drops below altitude 10° 09:07:24 10° 175° (S) 4,063 11.8 5.3°
Sets 09:11:16 0° 159° (SSE) 4,602 12.8 5.6°
